| time (UTC) | temp F | wind direction | speed MPH | gust MPH | rain 1hr in | rain 24hr in | rain mn in | humidity % | barometer mb |
| 20260505022045 | 59 | 150 | 2.0 | 2.0 | 0.00 | 0.01 | 0.01 | 83 | 1012.5 |
| 20260505015040 | 58 | 198 | 0.0 | 0.0 | 0.00 | 0.01 | 0.01 | 85 | 1012.5 |
| 20260505012036 | 59 | 156 | 0.0 | 0.0 | 0.00 | 0.01 | 0.01 | 87 | 1012.5 |
| 20260505005032 | 62 | 142 | 1.0 | 1.0 | 0.01 | 0.01 | 0.01 | 77 | 1012.1 |
| 20260505002031 | 69 | 182 | 0.0 | 0.0 | 0.00 | 0.00 | 0.00 | 50 | 1011.7 |
| 20260504235031 | 71 | 178 | 1.0 | 1.0 | 0.00 | 0.00 | 0.00 | 47 | 1011.4 |
| 20260504232029 | 72 | 344 | 2.0 | 2.0 | 0.00 | 0.00 | 0.00 | 45 | 1011.4 |
| 20260504225028 | 74 | 168 | 6.0 | 6.0 | 0.00 | 0.00 | 0.00 | 42 | 1011.1 |
| 20260504222026 | 73 | 216 | 6.0 | 7.0 | 0.00 | 0.00 | 0.00 | 43 | 1011.4 |
| 20260504215025 | 74 | 246 | 7.0 | 8.0 | 0.00 | 0.00 | 0.00 | 41 | 1011.4 |
| 20260504212022 | 74 | 222 | 3.0 | 3.0 | 0.00 | 0.00 | 0.00 | 42 | 1011.4 |
| 20260504205017 | 73 | 179 | 11.0 | 12.0 | 0.00 | 0.00 | 0.00 | 41 | 1011.4 |
| 20260504202013 | 73 | 307 | 6.0 | 6.0 | 0.00 | 0.00 | 0.00 | 41 | 1011.7 |
| 20260504195011 | 73 | 222 | 2.0 | 2.0 | 0.00 | 0.00 | 0.00 | 41 | 1012.1 |
| 20260504192006 | 73 | 258 | 4.0 | 5.0 | 0.00 | 0.00 | 0.00 | 40 | 1012.9 |
| 20260504185003 | 73 | 198 | 6.0 | 7.0 | 0.00 | 0.00 | 0.00 | 38 | 1012.9 |
| 20260504182000 | 72 | 300 | 6.0 | 7.0 | 0.00 | 0.00 | 0.00 | 43 | 1013.5 |
| 20260504174958 | 71 | 204 | 3.0 | 3.0 | 0.00 | 0.00 | 0.00 | 47 | 1013.9 |
| 20260504171957 | 69 | 210 | 6.0 | 6.0 | 0.00 | 0.00 | 0.00 | 46 | 1014.5 |
| 20260504081915 | 41 | 204 | 0.0 | 0.0 | 0.00 | 0.00 | 0.00 | 78 | 1017.4 |
| 20260504044904 | 40 | 162 | 0.0 | 0.0 | 0.00 | 0.00 | 0.00 | 77 | 1018.0 |
| 20260504041903 | 40 | 144 | 0.0 | 0.0 | 0.00 | 0.00 | 0.00 | 75 | 1018.4 |
| 20260504034901 | 41 | 144 | 0.0 | 0.0 | 0.00 | 0.00 | 0.00 | 77 | 1018.4 |
| 20260504031901 | 42 | 186 | 0.0 | 0.0 | 0.00 | 0.00 | 0.00 | 76 | 1018.0 |
| 20260504024900 | 43 | 174 | 0.0 | 0.0 | 0.00 | 0.00 | 0.00 | 74 | 1018.0 |